Location: Malanoce
(44.2500°N, 7.4667°E)
Time: 23:25:39
(UTC+00:00)

SL-12 R/B(2) - Pass Details

Date: 17 November 2025
Orbit: 1173 x 2175 km, 63.4° (Epoch: 13 December)

Event Time Altitude Azimuth Distance (km) Brightness Sun altitude
Rises 17:16:18 0° 218° (SW) 4,151 7.7 -13.4°
Reaches altitude 10° 17:18:52 10° 219° (SW) 3,254 7.0 -13.9°
Maximum altitude 17:26:44 84° 307° (NW) 1,444 4.4 -15.3°
Drops below altitude 10° 17:36:25 10° 37° (NE) 3,950 6.2 -17.0°
Enters shadow 17:36:57 - 37° (NE) 4,127 6.3 -17.1°
